| time (UTC) | temp C | wind direction | speed KPH | gust KPH | rain 1hr cm | rain 24hr cm | rain mn cm | humidity % | barometer mb |
| 20260510180034 | 17 | 360 | 0.0 | 3.2 | 0.00 | 0.00 | 0.00 | 48 | 1016.8 |
| 20260510174532 | 16 | 360 | 0.0 | 9.7 | 0.00 | 0.00 | 0.00 | 44 | 1016.8 |
| 20260510173028 | 15 | 131 | 0.0 | 6.4 | 0.00 | 0.00 | 0.00 | 46 | 1016.9 |
| 20260510171523 | 14 | 360 | 0.0 | 8.0 | 0.00 | 0.00 | 0.00 | 52 | 1016.7 |
| 20260510170022 | 15 | 90 | 0.0 | 4.8 | 0.00 | 0.00 | 0.00 | 49 | 1016.7 |
| 20260510164523 | 13 | 360 | 0.0 | 4.8 | 0.00 | 0.00 | 0.00 | 57 | 1016.9 |
| 20260510163016 | 14 | 360 | 0.0 | 1.6 | 0.00 | 0.00 | 0.00 | 56 | 1016.8 |
| 20260510161522 | 13 | 360 | 0.0 | 9.7 | 0.00 | 0.00 | 0.00 | 61 | 1016.9 |
| 20260510160009 | 13 | 360 | 0.0 | 4.8 | 0.00 | 0.00 | 0.00 | 63 | 1016.7 |
| 20260510154508 | 13 | 360 | 1.6 | 6.4 | 0.00 | 0.00 | 0.00 | 63 | 1016.7 |
| 20260510153005 | 12 | 92 | 0.0 | 4.8 | 0.00 | 0.00 | 0.00 | 65 | 1016.6 |
| 20260510151503 | 12 | 360 | 0.0 | 8.0 | 0.00 | 0.00 | 0.00 | 68 | 1016.3 |
| 20260510150122 | 11 | 101 | 0.0 | 3.2 | 0.00 | 0.00 | 0.00 | 72 | 1016.2 |
| 20260510144613 | 11 | 360 | 0.0 | 3.2 | 0.00 | 0.00 | 0.00 | 74 | 1016.1 |
| 20260510143053 | 11 | 115 | 0.0 | 3.2 | 0.00 | 0.00 | 0.00 | 76 | 1016.3 |
| 20260510141546 | 10 | 186 | 1.6 | 6.4 | 0.00 | 0.00 | 0.00 | 77 | 1016.3 |
| 20260510140042 | 9 | 360 | 0.0 | 3.2 | 0.00 | 0.00 | 0.00 | 80 | 1016.4 |
| 20260510134547 | 8 | 360 | 0.0 | 3.2 | 0.00 | 0.00 | 0.00 | 82 | 1016.4 |
| 20260510133045 | 8 | 360 | 0.0 | 1.6 | 0.00 | 0.00 | 0.00 | 83 | 1016.4 |
| 20260510131540 | 8 | 360 | 0.0 | 1.6 | 0.00 | 0.00 | 0.00 | 85 | 1016.4 |
| 20260510130037 | 8 | 360 | 0.0 | 1.6 | 0.00 | 0.00 | 0.00 | 86 | 1016.3 |
| 20260510124533 | 7 | 97 | 0.0 | 1.6 | 0.00 | 0.00 | 0.00 | 86 | 1016.3 |
| 20260510123030 | 7 | 360 | 0.0 | 1.6 | 0.00 | 0.00 | 0.00 | 85 | 1016.4 |
| 20260510121530 | 7 | 360 | 0.0 | 3.2 | 0.00 | 0.00 | 0.00 | 85 | 1016.4 |
| 20260510120024 | 7 | 360 | 0.0 | 3.2 | 0.00 | 0.00 | 0.00 | 84 | 1016.4 |
| 20260510114533 | 7 | 360 | 0.0 | 3.2 | 0.00 | 0.00 | 0.00 | 83 | 1016.1 |
| 20260510113027 | 7 | 41 | 0.0 | 1.6 | 0.00 | 0.00 | 0.00 | 83 | 1015.9 |
| 20260510111525 | 7 | 360 | 0.0 | 4.8 | 0.00 | 0.00 | 0.00 | 82 | 1015.5 |
| 20260510110025 | 8 | 360 | 1.6 | 6.4 | 0.00 | 0.00 | 0.00 | 80 | 1015.4 |
| 20260510104512 | 8 | 360 | 0.0 | 8.0 | 0.00 | 0.00 | 0.00 | 75 | 1015.3 |
| 20260510103009 | 8 | 360 | 0.0 | 0.0 | 0.00 | 0.00 | 0.00 | 75 | 1015.1 |
| 20260510101511 | 8 | 360 | 0.0 | 0.0 | 0.00 | 0.00 | 0.00 | 75 | 1015.0 |
| 20260510100008 | 8 | 360 | 0.0 | 0.0 | 0.00 | 0.00 | 0.00 | 74 | 1015.0 |
| 20260510094507 | 8 | 360 | 0.0 | 1.6 | 0.00 | 0.00 | 0.00 | 74 | 1014.9 |
| 20260510093006 | 8 | 360 | 0.0 | 1.6 | 0.00 | 0.00 | 0.00 | 73 | 1014.8 |
| 20260510091504 | 8 | 55 | 0.0 | 0.0 | 0.00 | 0.00 | 0.00 | 73 | 1014.7 |
| 20260510090003 | 8 | 360 | 0.0 | 0.0 | 0.00 | 0.00 | 0.00 | 73 | 1014.3 |
| 20260510084501 | 8 | 360 | 0.0 | 1.6 | 0.00 | 0.00 | 0.00 | 73 | 1014.0 |
| 20260510083100 | 8 | 360 | 0.0 | 0.0 | 0.00 | 0.00 | 0.00 | 73 | 1014.0 |
| 20260510081559 | 8 | 360 | 0.0 | 0.0 | 0.00 | 0.00 | 0.00 | 72 | 1014.0 |
| 20260510080103 | 8 | 360 | 0.0 | 0.0 | 0.00 | 0.00 | 0.00 | 73 | 1014.0 |
| 20260510074606 | 8 | 360 | 0.0 | 1.6 | 0.00 | 0.00 | 0.00 | 73 | 1014.0 |
| 20260510073056 | 8 | 360 | 0.0 | 1.6 | 0.00 | 0.00 | 0.00 | 73 | 1014.2 |
| 20260510071557 | 9 | 360 | 0.0 | 1.6 | 0.00 | 0.00 | 0.00 | 72 | 1014.2 |
| 20260510070108 | 9 | 360 | 0.0 | 0.0 | 0.00 | 0.00 | 0.00 | 70 | 1014.2 |
| 20260510064600 | 9 | 360 | 0.0 | 1.6 | 0.00 | 0.00 | 0.00 | 71 | 1014.1 |
| 20260510063054 | 8 | 360 | 0.0 | 0.0 | 0.00 | 0.00 | 0.00 | 72 | 1014.2 |
| 20260510061551 | 8 | 360 | 0.0 | 0.0 | 0.00 | 0.00 | 0.00 | 73 | 1014.4 |
| 20260510060048 | 8 | 360 | 0.0 | 0.0 | 0.00 | 0.00 | 0.00 | 74 | 1014.3 |
| 20260510054552 | 8 | 360 | 0.0 | 6.4 | 0.00 | 0.00 | 0.00 | 77 | 1014.1 |
| 20260510053044 | 9 | 53 | 0.0 | 1.6 | 0.00 | 0.00 | 0.00 | 76 | 1014.2 |
| 20260510051544 | 9 | 53 | 0.0 | 1.6 | 0.00 | 0.00 | 0.00 | 75 | 1014.2 |
| 20260510050042 | 9 | 36 | 0.0 | 0.0 | 0.00 | 0.00 | 0.00 | 74 | 1014.1 |
| 20260510044541 | 10 | 360 | 0.0 | 0.0 | 0.00 | 0.00 | 0.00 | 72 | 1014.3 |
| 20260510043039 | 10 | 360 | 0.0 | 1.6 | 0.00 | 0.00 | 0.00 | 70 | 1013.9 |
| 20260510041547 | 10 | 360 | 0.0 | 0.0 | 0.00 | 0.00 | 0.00 | 69 | 1014.0 |
| 20260510040037 | 10 | 360 | 0.0 | 0.0 | 0.00 | 0.00 | 0.00 | 68 | 1014.0 |
| 20260510034535 | 10 | 360 | 0.0 | 0.0 | 0.00 | 0.00 | 0.00 | 68 | 1013.7 |
| 20260510033033 | 10 | 303 | 0.0 | 1.6 | 0.00 | 0.00 | 0.00 | 67 | 1013.6 |
| 20260510031534 | 10 | 306 | 0.0 | 3.2 | 0.00 | 0.00 | 0.00 | 67 | 1013.1 |
| 20260510030029 | 10 | 355 | 0.0 | 4.8 | 0.00 | 0.00 | 0.00 | 67 | 1012.8 |
| 20260510024527 | 10 | 300 | 0.0 | 6.4 | 0.00 | 0.00 | 0.00 | 67 | 1011.8 |
| 20260510023022 | 10 | 336 | 1.6 | 14.5 | 0.00 | 0.00 | 0.00 | 67 | 1011.1 |
| 20260510021532 | 10 | 290 | 1.6 | 11.3 | 0.00 | 0.00 | 0.00 | 68 | 1010.4 |
| 20260510020022 | 11 | 298 | 0.0 | 17.7 | 0.00 | 0.00 | 0.00 | 67 | 1010.1 |
| 20260510014517 | 11 | 311 | 1.6 | 17.7 | 0.00 | 0.00 | 0.00 | 65 | 1009.7 |
| 20260510013012 | 12 | 360 | 1.6 | 25.7 | 0.00 | 0.00 | 0.00 | 64 | 1009.1 |
| 20260510011510 | 12 | 360 | 1.6 | 14.5 | 0.00 | 0.00 | 0.00 | 61 | 1008.2 |
| 20260510010006 | 13 | 360 | 4.8 | 32.2 | 0.00 | 0.00 | 0.00 | 59 | 1007.1 |
| 20260510004504 | 14 | 360 | 1.6 | 27.4 | 0.00 | 0.00 | 0.00 | 54 | 1006.2 |
| 20260510003003 | 18 | 360 | 12.9 | 48.3 | 0.00 | 0.00 | 0.00 | 40 | 1004.8 |
| 20260510001505 | 21 | 360 | 1.6 | 9.7 | 0.00 | 0.00 | 0.00 | 27 | 1003.4 |
| 20260510000001 | 22 | 360 | 1.6 | 9.7 | 0.00 | 0.00 | 0.00 | 26 | 1003.4 |
| 20260509234503 | 22 | 360 | 1.6 | 6.4 | 0.00 | 0.00 | 0.00 | 25 | 1003.0 |
| 20260509233100 | 22 | 360 | 1.6 | 12.9 | 0.00 | 0.00 | 0.00 | 23 | 1002.8 |
| 20260509231600 | 22 | 5 | 1.6 | 12.9 | 0.00 | 0.00 | 0.00 | 25 | 1002.7 |
| 20260509230107 | 23 | 360 | 1.6 | 12.9 | 0.00 | 0.00 | 0.00 | 23 | 1002.5 |
| 20260509224558 | 22 | 41 | 1.6 | 16.1 | 0.00 | 0.00 | 0.00 | 26 | 1002.4 |
| 20260509223100 | 22 | 360 | 0.0 | 8.0 | 0.00 | 0.00 | 0.00 | 23 | 1002.4 |
| 20260509221557 | 22 | 342 | 3.2 | 16.1 | 0.00 | 0.00 | 0.00 | 22 | 1002.1 |
| 20260509214554 | 22 | 360 | 3.2 | 14.5 | 0.00 | 0.00 | 0.00 | 24 | 1002.2 |
| 20260509213053 | 22 | 360 | 3.2 | 14.5 | 0.00 | 0.00 | 0.00 | 25 | 1002.3 |
| 20260509211554 | 22 | 360 | 4.8 | 20.9 | 0.00 | 0.00 | 0.00 | 24 | 1002.4 |
| 20260509210055 | 21 | 360 | 1.6 | 19.3 | 0.00 | 0.00 | 0.00 | 25 | 1002.6 |
| 20260509204558 | 22 | 360 | 4.8 | 19.3 | 0.00 | 0.00 | 0.00 | 26 | 1003.0 |
| 20260509203046 | 22 | 360 | 1.6 | 14.5 | 0.00 | 0.00 | 0.00 | 23 | 1003.1 |
| 20260509201544 | 21 | 360 | 9.7 | 30.6 | 0.00 | 0.00 | 0.00 | 25 | 1003.4 |
| 20260509200044 | 22 | 360 | 1.6 | 14.5 | 0.00 | 0.00 | 0.00 | 27 | 1003.7 |
| 20260509194544 | 23 | 22 | 1.6 | 8.0 | 0.00 | 0.00 | 0.00 | 21 | 1003.9 |
| 20260509193044 | 21 | 360 | 3.2 | 8.0 | 0.00 | 0.00 | 0.00 | 25 | 1003.9 |
| 20260509191539 | 22 | 355 | 1.6 | 8.0 | 0.00 | 0.00 | 0.00 | 24 | 1003.9 |
| 20260509190037 | 23 | 297 | 1.6 | 9.7 | 0.00 | 0.00 | 0.00 | 23 | 1004.2 |
| 20260509184538 | 22 | 360 | 0.0 | 14.5 | 0.00 | 0.00 | 0.00 | 28 | 1004.3 |
| 20260509183034 | 22 | 338 | 3.2 | 17.7 | 0.00 | 0.00 | 0.00 | 25 | 1004.4 |
| 20260509181533 | 21 | 36 | 3.2 | 9.7 | 0.00 | 0.00 | 0.00 | 25 | 1004.4 |